Location: Unspecified
(0.0000°N, 0.0000°E)
Time: 19:04:25
(UTC+01:00)

Ariane H10 - Visible Passes

Search period start: 28 November 2014 00:00
Search period end: 08 December 2014 00:00
Orbit: 420 x 35149 km, 3.9° (Epoch: 27 November)

Date Brightness Start Highest point End Pass type
(mag) Time Alt. Az. Time Alt. Az. Time Alt. Az.
29 Nov 4.1 04:58:57 28° ENE 04:58:57 28° ENE 05:00:14 10° E visible
29 Nov 8.1 15:56:36 10° W 01:16:54 40° W 01:16:54 40° W visible
30 Nov 7.8 12:24:36 10° W 18:15:11 87° S 22:03:11 47° E visible
02 Dec 2.4 05:40:16 38° WNW 05:41:02 54° N 05:43:55 10° ENE visible
02 Dec 8.4 16:46:18 10° W 01:58:37 24° W 01:58:37 24° W visible
03 Dec 7.5 13:08:33 10° W 13:47:06 88° N 22:44:52 66° ESE visible
04 Dec 6.2 09:44:12 10° W 09:51:08 77° N 19:25:01 10° E visible
05 Dec 2.9 06:21:50 10° WNW 06:24:22 51° N 06:28:54 10° E visible
05 Dec 11.2 17:40:59 10° W 19:10:33 30° W 22:44:28 10° W visible
06 Dec 7.4 13:53:06 10° W 15:35:50 87° WSW 23:26:26 84° S visible
07 Dec 6.7 10:27:05 10° W 10:36:52 81° N 20:12:13 10° E visible
